Year,Month,Day,Hour,Minute,Value (Times are PST for temperature in C)
2013,05,05,00,00,11.20
2013,05,05,00,01,11.20
2013,05,05,00,02,11.20
2013,05,05,00,03,11.20
2013,05,05,00,04,11.10
2013,05,05,00,05,11.10
2013,05,05,00,06,11.10
2013,05,05,00,07,11.10
2013,05,05,00,08,11.00
2013,05,05,00,09,11.00
2013,05,05,00,10,11.00
2013,05,05,00,11,11.00
2013,05,05,00,12,11.00
2013,05,05,00,13,10.90
2013,05,05,00,14,10.90
2013,05,05,00,15,10.90
2013,05,05,00,16,10.90
2013,05,05,00,17,10.90
2013,05,05,00,18,10.90
2013,05,05,00,19,10.80
2013,05,05,00,20,10.80
2013,05,05,00,21,10.80
2013,05,05,00,22,10.80
2013,05,05,00,23,10.80
2013,05,05,00,24,10.80
2013,05,05,00,25,10.80
2013,05,05,00,26,10.80
2013,05,05,00,27,10.70
2013,05,05,00,28,10.70
2013,05,05,00,29,10.70
2013,05,05,00,30,10.70
2013,05,05,00,31,10.70
2013,05,05,00,32,10.60
2013,05,05,00,33,10.60
2013,05,05,00,34,10.60
2013,05,05,00,35,10.60
2013,05,05,00,36,10.60
2013,05,05,00,37,10.60
2013,05,05,00,38,10.50
2013,05,05,00,39,10.50
2013,05,05,00,40,10.40
2013,05,05,00,41,10.40
2013,05,05,00,42,10.40
2013,05,05,00,43,10.30
2013,05,05,00,44,10.30
2013,05,05,00,45,10.30
2013,05,05,00,46,10.30
2013,05,05,00,47,10.30
2013,05,05,00,48,10.20
2013,05,05,00,49,10.20
2013,05,05,00,50,10.20
2013,05,05,00,51,10.20
2013,05,05,00,52,10.20
2013,05,05,00,53,10.20
2013,05,05,00,54,10.20
2013,05,05,00,55,10.10
2013,05,05,00,56,10.10
2013,05,05,00,57,10.10
2013,05,05,00,58,10.10
2013,05,05,00,59,10.00
2013,05,05,01,00,10.00
2013,05,05,01,01,10.00
2013,05,05,01,02,9.90
2013,05,05,01,03,9.90
2013,05,05,01,04,9.90
2013,05,05,01,05,9.90
2013,05,05,01,06,9.80
2013,05,05,01,07,9.80
2013,05,05,01,08,9.80
2013,05,05,01,09,9.70
2013,05,05,01,10,9.70
2013,05,05,01,11,9.70
2013,05,05,01,12,9.70
2013,05,05,01,13,9.70
2013,05,05,01,14,9.70
2013,05,05,01,15,9.70
2013,05,05,01,16,9.60
2013,05,05,01,17,9.60
2013,05,05,01,18,9.60
2013,05,05,01,19,9.60
2013,05,05,01,20,9.60
2013,05,05,01,21,9.60
2013,05,05,01,22,9.50
2013,05,05,01,23,9.50
2013,05,05,01,24,9.50
2013,05,05,01,25,9.50
2013,05,05,01,26,9.40
2013,05,05,01,27,9.40
2013,05,05,01,28,9.40
2013,05,05,01,29,9.40
2013,05,05,01,30,9.30
2013,05,05,01,31,9.30
2013,05,05,01,32,9.30
2013,05,05,01,33,9.30
2013,05,05,01,34,9.30
2013,05,05,01,35,9.30
2013,05,05,01,36,9.30
2013,05,05,01,37,9.20
2013,05,05,01,38,9.20
2013,05,05,01,39,9.20
2013,05,05,01,40,9.20
2013,05,05,01,41,9.20
2013,05,05,01,42,9.10
2013,05,05,01,43,9.10
2013,05,05,01,44,9.10
2013,05,05,01,45,9.10
2013,05,05,01,46,9.10
2013,05,05,01,47,9.10
2013,05,05,01,48,9.00
2013,05,05,01,49,9.00
2013,05,05,01,50,9.00
2013,05,05,01,51,8.90
2013,05,05,01,52,8.90
2013,05,05,01,53,8.90
2013,05,05,01,54,8.80
2013,05,05,01,55,8.80
2013,05,05,01,56,8.80
2013,05,05,01,57,8.80
2013,05,05,01,58,8.70
2013,05,05,01,59,8.70
2013,05,05,02,00,8.70
2013,05,05,02,01,8.70
2013,05,05,02,02,8.70
2013,05,05,02,03,8.60
2013,05,05,02,04,8.60
2013,05,05,02,05,8.60
2013,05,05,02,06,8.60
2013,05,05,02,07,8.60
2013,05,05,02,08,8.50
2013,05,05,02,09,8.50
2013,05,05,02,10,8.50
2013,05,05,02,11,8.50
2013,05,05,02,12,8.50
2013,05,05,02,13,8.50
2013,05,05,02,14,8.50
2013,05,05,02,15,8.40
2013,05,05,02,16,8.40
2013,05,05,02,17,8.40
2013,05,05,02,18,8.40
2013,05,05,02,19,8.40
2013,05,05,02,20,8.40
2013,05,05,02,21,8.40
2013,05,05,02,22,8.40
2013,05,05,02,23,8.40
2013,05,05,02,24,8.40
2013,05,05,02,25,8.40
2013,05,05,02,26,8.40
2013,05,05,02,27,8.40
2013,05,05,02,28,8.30
2013,05,05,02,29,8.30
2013,05,05,02,30,8.30
2013,05,05,02,31,8.30
2013,05,05,02,32,8.30
2013,05,05,02,33,8.30
2013,05,05,02,34,8.30
2013,05,05,02,35,8.30
2013,05,05,02,36,8.30
2013,05,05,02,37,8.30
2013,05,05,02,38,8.30
2013,05,05,02,39,8.30
2013,05,05,02,40,8.30
2013,05,05,02,41,8.20
2013,05,05,02,42,8.20
2013,05,05,02,43,8.20
2013,05,05,02,44,8.20
2013,05,05,02,45,8.20
2013,05,05,02,46,8.20
2013,05,05,02,47,8.10
2013,05,05,02,48,8.10
2013,05,05,02,49,8.10
2013,05,05,02,50,8.10
2013,05,05,02,51,8.10
2013,05,05,02,52,8.10
2013,05,05,02,53,8.10
2013,05,05,02,54,8.00
2013,05,05,02,55,8.00
2013,05,05,02,56,8.00
2013,05,05,02,57,8.00
2013,05,05,02,58,7.90
2013,05,05,02,59,7.90
2013,05,05,03,00,7.90
2013,05,05,03,01,7.90
2013,05,05,03,02,7.90
2013,05,05,03,03,7.90
2013,05,05,03,04,7.90
2013,05,05,03,05,7.80
2013,05,05,03,06,7.80
2013,05,05,03,07,7.80
2013,05,05,03,08,7.80
2013,05,05,03,09,7.80
2013,05,05,03,10,7.80
2013,05,05,03,11,7.80
2013,05,05,03,12,7.70
2013,05,05,03,13,7.70
2013,05,05,03,14,7.70
2013,05,05,03,15,7.70
2013,05,05,03,16,7.70
2013,05,05,03,17,7.70
2013,05,05,03,18,7.70
2013,05,05,03,19,7.70
2013,05,05,03,20,7.60
2013,05,05,03,21,7.60
2013,05,05,03,22,7.60
2013,05,05,03,23,7.60
2013,05,05,03,24,7.60
2013,05,05,03,25,7.60
2013,05,05,03,26,7.50
2013,05,05,03,27,7.50
2013,05,05,03,28,7.50
2013,05,05,03,29,7.40
2013,05,05,03,30,7.40
2013,05,05,03,31,7.40
2013,05,05,03,32,7.40
2013,05,05,03,33,7.40
2013,05,05,03,34,7.40
2013,05,05,03,35,7.40
2013,05,05,03,36,7.30
2013,05,05,03,37,7.30
2013,05,05,03,38,7.30
2013,05,05,03,39,7.30
2013,05,05,03,40,7.30
2013,05,05,03,41,7.30
2013,05,05,03,42,7.30
2013,05,05,03,43,7.30
2013,05,05,03,44,7.30
2013,05,05,03,45,7.30
2013,05,05,03,46,7.20
2013,05,05,03,47,7.20
2013,05,05,03,48,7.20
2013,05,05,03,49,7.20
2013,05,05,03,50,7.20
2013,05,05,03,51,7.20
2013,05,05,03,52,7.20
2013,05,05,03,53,7.20
2013,05,05,03,54,7.20
2013,05,05,03,55,7.10
2013,05,05,03,56,7.10
2013,05,05,03,57,7.10
2013,05,05,03,58,7.10
2013,05,05,03,59,7.10
2013,05,05,04,00,7.00
2013,05,05,04,01,7.00
2013,05,05,04,02,7.00
2013,05,05,04,03,7.00
2013,05,05,04,04,6.90
2013,05,05,04,05,6.90
2013,05,05,04,06,6.90
2013,05,05,04,07,6.90
2013,05,05,04,08,6.90
2013,05,05,04,09,6.90
2013,05,05,04,10,6.90
2013,05,05,04,11,6.90
2013,05,05,04,12,6.90
2013,05,05,04,13,6.90
2013,05,05,04,14,6.80
2013,05,05,04,15,6.80
2013,05,05,04,16,6.80
2013,05,05,04,17,6.80
2013,05,05,04,18,6.80
2013,05,05,04,19,6.80
2013,05,05,04,20,6.80
2013,05,05,04,21,6.80
2013,05,05,04,22,6.80
2013,05,05,04,23,6.80
2013,05,05,04,24,6.80
2013,05,05,04,25,6.80
2013,05,05,04,26,6.70
2013,05,05,04,27,6.70
2013,05,05,04,28,6.70
2013,05,05,04,29,6.70
2013,05,05,04,30,6.70
2013,05,05,04,31,6.70
2013,05,05,04,32,6.70
2013,05,05,04,33,6.70
2013,05,05,04,34,6.60
2013,05,05,04,35,6.60
2013,05,05,04,36,6.60
2013,05,05,04,37,6.60
2013,05,05,04,38,6.60
2013,05,05,04,39,6.60
2013,05,05,04,40,6.50
2013,05,05,04,41,6.50
2013,05,05,04,42,6.50
2013,05,05,04,43,6.50
2013,05,05,04,44,6.40
2013,05,05,04,45,6.40
2013,05,05,04,46,6.40
2013,05,05,04,47,6.40
2013,05,05,04,48,6.40
2013,05,05,04,49,6.40
2013,05,05,04,50,6.40
2013,05,05,04,51,6.40
2013,05,05,04,52,6.40
2013,05,05,04,53,6.40
2013,05,05,04,54,6.30
2013,05,05,04,55,6.30
2013,05,05,04,56,6.30
2013,05,05,04,57,6.30
2013,05,05,04,58,6.30
2013,05,05,04,59,6.30
2013,05,05,05,00,6.30
2013,05,05,05,01,6.30
2013,05,05,05,02,6.30
2013,05,05,05,03,6.30
2013,05,05,05,04,6.30
2013,05,05,05,05,6.20
2013,05,05,05,06,6.20
2013,05,05,05,07,6.20
2013,05,05,05,08,6.20
2013,05,05,05,09,6.20
2013,05,05,05,10,6.20
2013,05,05,05,11,6.20
2013,05,05,05,12,6.20
2013,05,05,05,13,6.20
2013,05,05,05,14,6.20
2013,05,05,05,15,6.10
2013,05,05,05,16,6.10
2013,05,05,05,17,6.10
2013,05,05,05,18,6.10
2013,05,05,05,19,6.10
2013,05,05,05,20,6.10
2013,05,05,05,21,6.10
2013,05,05,05,22,6.10
2013,05,05,05,23,6.10
2013,05,05,05,24,6.10
2013,05,05,05,25,6.10
2013,05,05,05,26,6.00
2013,05,05,05,27,6.00
2013,05,05,05,28,6.00
2013,05,05,05,29,6.00
2013,05,05,05,30,6.00
2013,05,05,05,31,5.90
2013,05,05,05,32,5.90
2013,05,05,05,33,5.90
2013,05,05,05,34,5.90
2013,05,05,05,35,5.90
2013,05,05,05,36,5.90
2013,05,05,05,37,5.90
2013,05,05,05,38,5.90
2013,05,05,05,39,5.90
2013,05,05,05,40,5.90
2013,05,05,05,41,5.90
2013,05,05,05,42,5.90
2013,05,05,05,43,5.80
2013,05,05,05,44,5.80
2013,05,05,05,45,5.80
2013,05,05,05,46,5.80
2013,05,05,05,47,5.80
2013,05,05,05,48,5.80
2013,05,05,05,49,5.80
2013,05,05,05,50,5.80
2013,05,05,05,51,5.80
2013,05,05,05,52,5.70
2013,05,05,05,53,5.70
2013,05,05,05,54,5.70
2013,05,05,05,55,5.70
2013,05,05,05,56,5.70
2013,05,05,05,57,5.70
2013,05,05,05,58,5.70
2013,05,05,05,59,5.70
2013,05,05,06,00,5.70
2013,05,05,06,01,5.70
2013,05,05,06,02,5.60
2013,05,05,06,03,5.60
2013,05,05,06,04,5.60
2013,05,05,06,05,5.60
2013,05,05,06,06,5.60
2013,05,05,06,07,5.60
2013,05,05,06,08,5.60
2013,05,05,06,09,5.60
2013,05,05,06,10,5.60
2013,05,05,06,11,5.60
2013,05,05,06,12,5.60
2013,05,05,06,13,5.60
2013,05,05,06,14,5.60
2013,05,05,06,15,5.60
2013,05,05,06,16,5.50
2013,05,05,06,17,5.50
2013,05,05,06,18,5.50
2013,05,05,06,19,5.50
2013,05,05,06,20,5.50
2013,05,05,06,21,5.50
2013,05,05,06,22,5.50
2013,05,05,06,23,5.50
2013,05,05,06,24,5.50
2013,05,05,06,25,5.50
2013,05,05,06,26,5.50
2013,05,05,06,27,5.50
2013,05,05,06,28,5.50
2013,05,05,06,29,5.40
2013,05,05,06,30,5.40
2013,05,05,06,31,5.40
2013,05,05,06,32,5.40
2013,05,05,06,33,5.40
2013,05,05,06,34,5.40
2013,05,05,06,35,5.40
2013,05,05,06,36,5.40
2013,05,05,06,37,5.40
2013,05,05,06,38,5.40
2013,05,05,06,39,5.40
2013,05,05,06,40,5.40
2013,05,05,06,41,5.40
2013,05,05,06,42,5.40
2013,05,05,06,43,5.40
2013,05,05,06,44,5.40
2013,05,05,06,45,5.40
2013,05,05,06,46,5.40
2013,05,05,06,47,5.40
2013,05,05,06,48,5.40
2013,05,05,06,49,5.40
2013,05,05,06,50,5.40
2013,05,05,06,51,5.40
2013,05,05,06,52,5.40
2013,05,05,06,53,5.40
2013,05,05,06,54,5.40
2013,05,05,06,55,5.40
2013,05,05,06,56,5.40
2013,05,05,06,57,5.40
2013,05,05,06,58,5.40
2013,05,05,06,59,5.40
2013,05,05,07,00,5.40
2013,05,05,07,01,5.40
2013,05,05,07,02,5.40
2013,05,05,07,03,5.40
2013,05,05,07,04,5.40
2013,05,05,07,05,5.40
2013,05,05,07,06,5.40
2013,05,05,07,07,5.40
2013,05,05,07,08,5.50
2013,05,05,07,09,5.50
2013,05,05,07,10,5.50
2013,05,05,07,11,5.50
2013,05,05,07,12,5.60
2013,05,05,07,13,5.60
2013,05,05,07,14,5.70
2013,05,05,07,15,5.70
2013,05,05,07,16,5.80
2013,05,05,07,17,5.80
2013,05,05,07,18,5.90
2013,05,05,07,19,6.00
2013,05,05,07,20,6.00
2013,05,05,07,21,6.10
2013,05,05,07,22,6.20
2013,05,05,07,23,6.20
2013,05,05,07,24,6.30
2013,05,05,07,25,6.40
2013,05,05,07,26,6.50
2013,05,05,07,27,6.60
2013,05,05,07,28,6.60
2013,05,05,07,29,6.70
2013,05,05,07,30,6.80
2013,05,05,07,31,6.90
2013,05,05,07,32,7.00
2013,05,05,07,33,7.10
2013,05,05,07,34,7.20
2013,05,05,07,35,7.30
2013,05,05,07,36,7.40
2013,05,05,07,37,7.40
2013,05,05,07,38,7.50
2013,05,05,07,39,7.50
2013,05,05,07,40,7.60
2013,05,05,07,41,7.70
2013,05,05,07,42,7.70
2013,05,05,07,43,7.80
2013,05,05,07,44,7.90
2013,05,05,07,45,8.00
2013,05,05,07,46,8.10
2013,05,05,07,47,8.20
2013,05,05,07,48,8.30
2013,05,05,07,49,8.40
2013,05,05,07,50,8.50
2013,05,05,07,51,8.60
2013,05,05,07,52,8.70
2013,05,05,07,53,8.70
2013,05,05,07,54,8.80
2013,05,05,07,55,8.90
2013,05,05,07,56,9.00
2013,05,05,07,57,9.00
2013,05,05,07,58,9.10
2013,05,05,07,59,9.10
2013,05,05,08,00,9.20
2013,05,05,08,01,9.20
2013,05,05,08,02,9.30
2013,05,05,08,03,9.30
2013,05,05,08,04,9.40
2013,05,05,08,05,9.40
2013,05,05,08,06,9.50
2013,05,05,08,07,9.50
2013,05,05,08,08,9.60
2013,05,05,08,09,9.60
2013,05,05,08,10,9.70
2013,05,05,08,11,9.80
2013,05,05,08,12,9.90
2013,05,05,08,13,10.00
2013,05,05,08,14,10.10
2013,05,05,08,15,10.30
2013,05,05,08,16,10.40
2013,05,05,08,17,10.50
2013,05,05,08,18,10.70
2013,05,05,08,19,10.70
2013,05,05,08,20,10.80
2013,05,05,08,21,10.90
2013,05,05,08,22,11.00
2013,05,05,08,23,11.00
2013,05,05,08,24,11.10
2013,05,05,08,25,11.20
2013,05,05,08,26,11.30
2013,05,05,08,27,11.40
2013,05,05,08,28,11.40
2013,05,05,08,29,11.50
2013,05,05,08,30,11.60
2013,05,05,08,31,11.70
2013,05,05,08,32,11.70
2013,05,05,08,33,11.70
2013,05,05,08,34,11.80
2013,05,05,08,35,11.80
2013,05,05,08,36,11.80
2013,05,05,08,37,11.80
2013,05,05,08,38,11.80
2013,05,05,08,39,11.90
2013,05,05,08,40,11.90
2013,05,05,08,41,12.00
2013,05,05,08,42,12.00
2013,05,05,08,43,12.10
2013,05,05,08,44,12.10
2013,05,05,08,45,12.20
2013,05,05,08,46,12.20
2013,05,05,08,47,12.20
2013,05,05,08,48,12.30
2013,05,05,08,49,12.30
2013,05,05,08,50,12.40
2013,05,05,08,51,12.50
2013,05,05,08,52,12.50
2013,05,05,08,53,12.60
2013,05,05,08,54,12.60
2013,05,05,08,55,12.60
2013,05,05,08,56,12.70
2013,05,05,08,57,12.70
2013,05,05,08,58,12.70
2013,05,05,08,59,12.70
2013,05,05,09,00,12.70
2013,05,05,09,01,12.70
2013,05,05,09,02,12.70
2013,05,05,09,03,12.70
2013,05,05,09,04,12.80
2013,05,05,09,05,12.80
2013,05,05,09,06,12.80
2013,05,05,09,07,12.90
2013,05,05,09,08,13.00
2013,05,05,09,09,13.00
2013,05,05,09,10,13.10
2013,05,05,09,11,13.20
2013,05,05,09,12,13.30
2013,05,05,09,13,13.30
2013,05,05,09,14,13.40
2013,05,05,09,15,13.50
2013,05,05,09,16,13.50
2013,05,05,09,17,13.60
2013,05,05,09,18,13.60
2013,05,05,09,19,13.70
2013,05,05,09,20,13.70
2013,05,05,09,21,13.80
2013,05,05,09,22,13.80
2013,05,05,09,23,13.90
2013,05,05,09,24,14.00
2013,05,05,09,25,14.10
2013,05,05,09,26,14.20
2013,05,05,09,27,14.30
2013,05,05,09,28,14.40
2013,05,05,09,29,14.50
2013,05,05,09,30,14.60
2013,05,05,09,31,14.70
2013,05,05,09,32,14.70
2013,05,05,09,33,14.80
2013,05,05,09,34,14.90
2013,05,05,09,35,14.90
2013,05,05,09,36,15.00
2013,05,05,09,37,15.10
2013,05,05,09,38,15.10
2013,05,05,09,39,15.20
2013,05,05,09,40,15.20
2013,05,05,09,41,15.30
2013,05,05,09,42,15.30
2013,05,05,09,43,15.40
2013,05,05,09,44,15.50
2013,05,05,09,45,15.60
2013,05,05,09,46,15.70
2013,05,05,09,47,15.80
2013,05,05,09,48,15.90
2013,05,05,09,49,16.00
2013,05,05,09,50,16.20
2013,05,05,09,51,16.20
2013,05,05,09,52,16.30
2013,05,05,09,53,16.40
2013,05,05,09,54,16.40
2013,05,05,09,55,16.40
2013,05,05,09,56,16.40
2013,05,05,09,57,16.40
2013,05,05,09,58,16.40
2013,05,05,09,59,16.40
2013,05,05,10,00,16.40
2013,05,05,10,01,16.40
2013,05,05,10,02,16.40
2013,05,05,10,03,16.50
2013,05,05,10,04,16.50
2013,05,05,10,05,16.60
2013,05,05,10,06,16.60
2013,05,05,10,07,16.70
2013,05,05,10,08,16.80
2013,05,05,10,09,16.90
2013,05,05,10,10,17.00
2013,05,05,10,11,17.10
2013,05,05,10,12,17.20
2013,05,05,10,13,17.30
2013,05,05,10,14,17.40
2013,05,05,10,15,17.60
2013,05,05,10,16,17.70
2013,05,05,10,17,17.80
2013,05,05,10,18,17.90
2013,05,05,10,19,18.00
2013,05,05,10,20,18.10
2013,05,05,10,21,18.20
2013,05,05,10,22,18.30
2013,05,05,10,23,18.30
2013,05,05,10,24,18.30
2013,05,05,10,25,18.40
2013,05,05,10,26,18.30
2013,05,05,10,27,18.30
2013,05,05,10,28,18.30
2013,05,05,10,29,18.30
2013,05,05,10,30,18.30
2013,05,05,10,31,18.30
2013,05,05,10,32,18.30
2013,05,05,10,33,18.30
2013,05,05,10,34,18.40
2013,05,05,10,35,18.40
2013,05,05,10,36,18.50
2013,05,05,10,37,18.60
2013,05,05,10,38,18.60
2013,05,05,10,39,18.60
2013,05,05,10,40,18.70
2013,05,05,10,41,18.70
2013,05,05,10,42,18.70
2013,05,05,10,43,18.80
2013,05,05,10,44,18.90
2013,05,05,10,45,18.90
2013,05,05,10,46,19.00
2013,05,05,10,47,19.00
2013,05,05,10,48,19.10
2013,05,05,10,49,19.20
2013,05,05,10,50,19.30
2013,05,05,10,51,19.40
2013,05,05,10,52,19.50
2013,05,05,10,53,19.60
2013,05,05,10,54,19.60
2013,05,05,10,55,19.60
2013,05,05,10,56,19.60
2013,05,05,10,57,19.60
2013,05,05,10,58,19.70
2013,05,05,10,59,19.70
2013,05,05,11,00,19.70
2013,05,05,11,01,19.80
2013,05,05,11,02,19.90
2013,05,05,11,03,20.00
2013,05,05,11,04,20.00
2013,05,05,11,05,20.10
2013,05,05,11,06,20.20
2013,05,05,11,07,20.30
2013,05,05,11,08,20.30
2013,05,05,11,09,20.40
2013,05,05,11,10,20.50
2013,05,05,11,11,20.60
2013,05,05,11,12,20.60
2013,05,05,11,13,20.70
2013,05,05,11,14,20.80
2013,05,05,11,15,20.90
2013,05,05,11,16,21.00
2013,05,05,11,17,21.10
2013,05,05,11,18,21.20
2013,05,05,11,19,21.20
2013,05,05,11,20,21.20
2013,05,05,11,21,21.20
2013,05,05,11,22,21.20
2013,05,05,11,23,21.30
2013,05,05,11,24,21.30
2013,05,05,11,25,21.30
2013,05,05,11,26,21.30
2013,05,05,11,27,21.30
2013,05,05,11,28,21.40
2013,05,05,11,29,21.50
2013,05,05,11,30,21.60
2013,05,05,11,31,21.70
2013,05,05,11,32,21.80
2013,05,05,11,33,21.80
2013,05,05,11,34,22.00
2013,05,05,11,35,22.10
2013,05,05,11,36,22.20
2013,05,05,11,37,22.30
2013,05,05,11,38,22.40
2013,05,05,11,39,22.40
2013,05,05,11,40,22.50
2013,05,05,11,41,22.60
2013,05,05,11,42,22.70
2013,05,05,11,43,22.70
2013,05,05,11,44,22.80
2013,05,05,11,45,22.80
2013,05,05,11,46,22.90
2013,05,05,11,47,22.90
2013,05,05,11,48,22.90
2013,05,05,11,49,22.90
2013,05,05,11,50,22.90
2013,05,05,11,51,23.00
2013,05,05,11,52,23.00
2013,05,05,11,53,23.10
2013,05,05,11,54,23.10
2013,05,05,11,55,23.20
2013,05,05,11,56,23.20
2013,05,05,11,57,23.30
2013,05,05,11,58,23.40
2013,05,05,11,59,23.50
2013,05,05,12,00,23.50
2013,05,05,12,01,23.60
2013,05,05,12,02,23.60
2013,05,05,12,03,23.70
2013,05,05,12,04,23.80
2013,05,05,12,05,23.90
2013,05,05,12,06,24.00
2013,05,05,12,07,24.00
2013,05,05,12,08,24.00
2013,05,05,12,09,24.10
2013,05,05,12,10,24.10
2013,05,05,12,11,24.10
2013,05,05,12,12,24.10
2013,05,05,12,13,24.10
2013,05,05,12,14,24.20
2013,05,05,12,15,24.30
2013,05,05,12,16,24.30
2013,05,05,12,17,24.30
2013,05,05,12,18,24.40
2013,05,05,12,19,24.50
2013,05,05,12,20,24.50
2013,05,05,12,21,24.60
2013,05,05,12,22,24.60
2013,05,05,12,23,24.70
2013,05,05,12,24,24.70
2013,05,05,12,25,24.80
2013,05,05,12,26,24.90
2013,05,05,12,27,25.00
2013,05,05,12,28,25.10
2013,05,05,12,29,25.20
2013,05,05,12,30,25.30
2013,05,05,12,31,25.40
2013,05,05,12,32,25.50
2013,05,05,12,33,25.60
2013,05,05,12,34,25.60
2013,05,05,12,35,25.60
2013,05,05,12,36,25.70
2013,05,05,12,37,25.70
2013,05,05,12,38,25.70
2013,05,05,12,39,25.80
2013,05,05,12,40,25.80
2013,05,05,12,41,25.80
2013,05,05,12,42,25.90
2013,05,05,12,43,25.90
2013,05,05,12,44,26.00
2013,05,05,12,45,26.00
2013,05,05,12,46,26.10
2013,05,05,12,47,26.10
2013,05,05,12,48,26.20
2013,05,05,12,49,26.30
2013,05,05,12,50,26.30
2013,05,05,12,51,26.30
2013,05,05,12,52,26.30
2013,05,05,12,53,26.30
2013,05,05,12,54,26.30
2013,05,05,12,55,26.40
2013,05,05,12,56,26.40
2013,05,05,12,57,26.50
2013,05,05,12,58,26.60
2013,05,05,12,59,26.70
2013,05,05,13,00,26.80
2013,05,05,13,01,26.90
2013,05,05,13,02,26.90
2013,05,05,13,03,27.00
2013,05,05,13,04,27.10
2013,05,05,13,05,27.20
2013,05,05,13,06,27.30
2013,05,05,13,07,27.30
2013,05,05,13,08,27.40
2013,05,05,13,09,27.40
2013,05,05,13,10,27.50
2013,05,05,13,11,27.60
2013,05,05,13,12,27.70
2013,05,05,13,13,27.80
2013,05,05,13,14,27.80
2013,05,05,13,15,27.90
2013,05,05,13,16,28.00
2013,05,05,13,17,28.10
2013,05,05,13,18,28.20
2013,05,05,13,19,28.30
2013,05,05,13,20,28.40
2013,05,05,13,21,28.50
2013,05,05,13,22,28.50
2013,05,05,13,23,28.60
2013,05,05,13,24,28.70
2013,05,05,13,25,28.70
2013,05,05,13,26,28.80
2013,05,05,13,27,28.80
2013,05,05,13,28,28.90
2013,05,05,13,29,28.90
2013,05,05,13,30,29.00
2013,05,05,13,31,29.00
2013,05,05,13,32,29.00
2013,05,05,13,33,29.10
2013,05,05,13,34,29.10
2013,05,05,13,35,29.00
2013,05,05,13,36,29.00
2013,05,05,13,37,29.00
2013,05,05,13,38,29.10
2013,05,05,13,39,29.10
2013,05,05,13,40,29.20
2013,05,05,13,41,29.20
2013,05,05,13,42,29.20
2013,05,05,13,43,29.20
2013,05,05,13,44,29.30
2013,05,05,13,45,29.30
2013,05,05,13,46,29.30
2013,05,05,13,47,29.30
2013,05,05,13,48,29.30
2013,05,05,13,49,29.30
2013,05,05,13,50,29.40
2013,05,05,13,51,29.50
2013,05,05,13,52,29.60
2013,05,05,13,53,29.70
2013,05,05,13,54,29.80
2013,05,05,13,55,30.00
2013,05,05,13,56,30.10
2013,05,05,13,57,30.20
2013,05,05,13,58,30.20
2013,05,05,13,59,30.20
2013,05,05,14,00,30.20
2013,05,05,14,01,30.20
2013,05,05,14,02,30.10
2013,05,05,14,03,30.20
2013,05,05,14,04,30.10
2013,05,05,14,05,30.10
2013,05,05,14,06,30.10
2013,05,05,14,07,30.10
2013,05,05,14,08,30.10
2013,05,05,14,09,30.20
2013,05,05,14,10,30.30
2013,05,05,14,11,30.40
2013,05,05,14,12,30.50
2013,05,05,14,13,30.60
2013,05,05,14,14,30.70
2013,05,05,14,15,30.70
2013,05,05,14,16,30.70
2013,05,05,14,17,30.70
2013,05,05,14,18,30.60
2013,05,05,14,19,30.50
2013,05,05,14,20,30.40
2013,05,05,14,21,30.30
2013,05,05,14,22,30.30
2013,05,05,14,23,30.30
2013,05,05,14,24,30.30
2013,05,05,14,25,30.30
2013,05,05,14,26,30.30
2013,05,05,14,27,30.40
2013,05,05,14,28,30.50
2013,05,05,14,29,30.60
2013,05,05,14,30,30.60
2013,05,05,14,31,30.60
2013,05,05,14,32,30.60
2013,05,05,14,33,30.50
2013,05,05,14,34,30.50
2013,05,05,14,35,30.60
2013,05,05,14,36,30.60
2013,05,05,14,37,30.60
2013,05,05,14,38,30.60
2013,05,05,14,39,30.60
2013,05,05,14,40,30.70
2013,05,05,14,41,30.80
2013,05,05,14,42,30.80
2013,05,05,14,43,30.80
2013,05,05,14,44,30.90
2013,05,05,14,45,31.00
2013,05,05,14,46,31.10
2013,05,05,14,47,31.10
2013,05,05,14,48,31.20
2013,05,05,14,49,31.20
2013,05,05,14,50,31.20
2013,05,05,14,51,31.20
2013,05,05,14,52,31.20
2013,05,05,14,53,31.20
2013,05,05,14,54,31.20
2013,05,05,14,55,31.20
2013,05,05,14,56,31.20
2013,05,05,14,57,31.20
2013,05,05,14,58,31.20
2013,05,05,14,59,31.20
2013,05,05,15,00,31.20
2013,05,05,15,01,31.30
2013,05,05,15,02,31.30
2013,05,05,15,03,31.30
2013,05,05,15,04,31.30
2013,05,05,15,05,31.40
2013,05,05,15,06,31.40
2013,05,05,15,07,31.40
2013,05,05,15,08,31.40
2013,05,05,15,09,31.40
2013,05,05,15,10,31.40
2013,05,05,15,11,31.30
2013,05,05,15,12,31.30
2013,05,05,15,13,31.40
2013,05,05,15,14,31.40
2013,05,05,15,15,31.50
2013,05,05,15,16,31.50
2013,05,05,15,17,31.50
2013,05,05,15,18,31.40
2013,05,05,15,19,31.50
2013,05,05,15,20,31.50
2013,05,05,15,21,31.50
2013,05,05,15,22,31.50
2013,05,05,15,23,31.40
2013,05,05,15,24,31.40
2013,05,05,15,25,31.40
2013,05,05,15,26,31.50
2013,05,05,15,27,31.50
2013,05,05,15,28,31.60
2013,05,05,15,29,31.60
2013,05,05,15,30,31.70
2013,05,05,15,31,31.80
2013,05,05,15,32,31.80
2013,05,05,15,33,31.90
2013,05,05,15,34,32.00
2013,05,05,15,35,32.00
2013,05,05,15,36,31.90
2013,05,05,15,37,31.90
2013,05,05,15,38,31.80
2013,05,05,15,39,31.80
2013,05,05,15,40,31.80
2013,05,05,15,41,31.80
2013,05,05,15,42,31.80
2013,05,05,15,43,31.80
2013,05,05,15,44,31.80
2013,05,05,15,45,31.80
2013,05,05,15,46,31.80
2013,05,05,15,47,31.80
2013,05,05,15,48,31.70
2013,05,05,15,49,31.70
2013,05,05,15,50,31.70
2013,05,05,15,51,31.70
2013,05,05,15,52,31.70
2013,05,05,15,53,31.80
2013,05,05,15,54,31.80
2013,05,05,15,55,31.70
2013,05,05,15,56,31.70
2013,05,05,15,57,31.80
2013,05,05,15,58,31.80
2013,05,05,15,59,31.80
2013,05,05,16,00,31.90
2013,05,05,16,01,31.90
2013,05,05,16,02,31.80
2013,05,05,16,03,31.90
2013,05,05,16,04,31.90
2013,05,05,16,05,31.90
2013,05,05,16,06,31.90
2013,05,05,16,07,31.90
2013,05,05,16,08,31.90
2013,05,05,16,09,31.90
2013,05,05,16,10,31.90
2013,05,05,16,11,31.90
2013,05,05,16,12,32.00
2013,05,05,16,13,32.10
2013,05,05,16,14,32.20
2013,05,05,16,15,32.20
2013,05,05,16,16,32.30
2013,05,05,16,17,32.30
2013,05,05,16,18,32.30
2013,05,05,16,19,32.30
2013,05,05,16,20,32.30
2013,05,05,16,21,32.40
2013,05,05,16,22,32.40
2013,05,05,16,23,32.40
2013,05,05,16,24,32.40
2013,05,05,16,25,32.40
2013,05,05,16,26,32.40
2013,05,05,16,27,32.40
2013,05,05,16,28,32.30
2013,05,05,16,29,32.20
2013,05,05,16,30,32.20
2013,05,05,16,31,32.20
2013,05,05,16,32,32.20
2013,05,05,16,33,32.20
2013,05,05,16,34,32.30
2013,05,05,16,35,32.30
2013,05,05,16,36,32.30
2013,05,05,16,37,32.30
2013,05,05,16,38,32.30
2013,05,05,16,39,32.30
2013,05,05,16,40,32.30
2013,05,05,16,41,32.20
2013,05,05,16,42,32.10
2013,05,05,16,43,32.00
2013,05,05,16,44,31.90
2013,05,05,16,45,31.80
2013,05,05,16,46,31.70
2013,05,05,16,47,31.60
2013,05,05,16,48,31.60
2013,05,05,16,49,31.60
2013,05,05,16,50,31.60
2013,05,05,16,51,31.50
2013,05,05,16,52,31.40
2013,05,05,16,53,31.40
2013,05,05,16,54,31.40
2013,05,05,16,55,31.30
2013,05,05,16,56,31.30
2013,05,05,16,57,31.30
2013,05,05,16,58,31.30
2013,05,05,16,59,31.20
2013,05,05,17,00,31.20
2013,05,05,17,01,31.10
2013,05,05,17,02,31.10
2013,05,05,17,03,31.20
2013,05,05,17,04,31.20
2013,05,05,17,05,31.20
2013,05,05,17,06,31.20
2013,05,05,17,07,31.20
2013,05,05,17,08,31.20
2013,05,05,17,09,31.10
2013,05,05,17,10,31.10
2013,05,05,17,11,31.10
2013,05,05,17,12,31.20
2013,05,05,17,13,31.20
2013,05,05,17,14,31.20
2013,05,05,17,15,31.10
2013,05,05,17,16,31.00
2013,05,05,17,17,31.00
2013,05,05,17,18,31.00
2013,05,05,17,19,31.00
2013,05,05,17,20,31.10
2013,05,05,17,21,31.10
2013,05,05,17,22,31.10
2013,05,05,17,23,31.10
2013,05,05,17,24,31.10
2013,05,05,17,25,31.10
2013,05,05,17,26,31.20
2013,05,05,17,27,31.30
2013,05,05,17,28,31.40
2013,05,05,17,29,31.40
2013,05,05,17,30,31.50
2013,05,05,17,31,31.40
2013,05,05,17,32,31.40
2013,05,05,17,33,31.30
2013,05,05,17,34,31.20
2013,05,05,17,35,31.10
2013,05,05,17,36,31.00
2013,05,05,17,37,31.00
2013,05,05,17,38,30.90